軌道要素
Epoch 2010 Oct. 11.0 TT = JDT 2455480.5
T 2010 Oct. 11.34591 TT MPC
q 2.5704374 (2000.0) P Q
z +0.0099920 Peri. 332.30556 -0.60277512 +0.60017055
+/-0.000002 Node 104.76100 +0.79490472 +0.39453601
e 0.9743162 Incl. 147.06159 +0.06920004 +0.69579929
From 135 observations 2010 May 16-2011 Mar. 5, mean residual 0".5.
|